• In Belarus
  • List of Countries
  • For 7 days
  • Water Temperature
  • Satellite Maps
  • Weather Map
  • Weather Widgets
  • user-avatar
    Login

    Hourly Weather Porto Alegre

    Today, 18 October, Wednesday

    Time Temperature Precipitation Wind Pressure Humidity
    00:00 +23°C° 0 mm 2 mps 758 mmHg 80%
    01:00 +23°C° 0 mm 2 mps 757 mmHg 79%
    02:00 +23°C° 0 mm 2 mps 757 mmHg 79%
    03:00 +22°C° 0 mm 1 mps 756 mmHg 80%
    04:00 +22°C° 0 mm 1 mps 756 mmHg 80%
    05:00 +22°C° 0 mm 1 mps 756 mmHg 81%
    06:00 +22°C° 0 mm 1 mps 756 mmHg 81%
    07:00 +24°C° 0 mm 1 mps 756 mmHg 75%
    08:00 +27°C° 0 mm 2 mps 756 mmHg 68%
    09:00 +29°C° 0 mm 2 mps 757 mmHg 60%
    10:00 +31°C° 0 mm 1 mps 756 mmHg 56%
    11:00 +33°C° 0 mm 1 mps 756 mmHg 51%
    12:00 +35°C° 0 mm 1 mps 755 mmHg 47%
    13:00 +36°C° 0 mm 1 mps 755 mmHg 47%
    14:00 +37°C° 0 mm 2 mps 754 mmHg 47%
    15:00 +37°C° 0 mm 2 mps 754 mmHg 47%
    16:00 +34°C° 0.9 mm 2 mps 754 mmHg 58%
    17:00 +30°C° 0.9 mm 3 mps 754 mmHg 69%
    18:00 +27°C° 0.9 mm 3 mps 754 mmHg 79%
    19:00 +26°C° 0.4 mm 3 mps 754 mmHg 82%
    20:00 +25°C° 0.4 mm 2 mps 754 mmHg 85%
    21:00 +24°C° 0.4 mm 2 mps 754 mmHg 88%
    22:00 +24°C° 1.2 mm 2 mps 754 mmHg 88%
    23:00 +24°C° 1.2 mm 2 mps 753 mmHg 89%

    Tomorrow, 19 October, Thursday

    Time Temperature Precipitation Wind Pressure Humidity
    00:00 +24°C° 1.2 mm 1 mps 753 mmHg 89%
    01:00 +24°C° 1.1 mm 2 mps 752 mmHg 89%
    02:00 +24°C° 1.1 mm 2 mps 751 mmHg 89%
    03:00 +24°C° 1.1 mm 3 mps 750 mmHg 90%
    04:00 +25°C° 0.6 mm 4 mps 750 mmHg 84%
    05:00 +26°C° 0.6 mm 5 mps 750 mmHg 79%
    06:00 +26°C° 0.6 mm 5 mps 751 mmHg 74%
    07:00 +25°C° 5.5 mm 5 mps 752 mmHg 80%
    08:00 +25°C° 5.5 mm 5 mps 754 mmHg 86%
    09:00 +23°C° 5.5 mm 4 mps 755 mmHg 92%
    10:00 +23°C° 0.5 mm 4 mps 755 mmHg 90%
    11:00 +25°C° 0.5 mm 4 mps 755 mmHg 88%
    12:00 +26°C° 0.5 mm 4 mps 756 mmHg 86%
    13:00 +26°C° 0.3 mm 4 mps 756 mmHg 84%
    14:00 +26°C° 0.3 mm 3 mps 756 mmHg 82%
    15:00 +27°C° 0.3 mm 3 mps 755 mmHg 81%
    16:00 +25°C° 0.2 mm 3 mps 756 mmHg 83%
    17:00 +23°C° 0.2 mm 4 mps 756 mmHg 85%
    18:00 +22°C° 0.2 mm 4 mps 756 mmHg 87%
    19:00 +21°C° 0.1 mm 4 mps 757 mmHg 87%
    20:00 +20°C° 0.1 mm 3 mps 757 mmHg 88%
    21:00 +19°C° 0.1 mm 3 mps 758 mmHg 88%
    22:00 +19°C° 0 mm 3 mps 758 mmHg 88%
    23:00 +19°C° 0 mm 3 mps 759 mmHg 89%

    Day after tomorrow, 20 October, Friday

    Time Temperature Precipitation Wind Pressure Humidity
    00:00 +19°C° 0 mm 3 mps 759 mmHg 89%
    01:00 +19°C° 0.1 mm 2 mps 759 mmHg 89%
    02:00 +19°C° 0.1 mm 2 mps 758 mmHg 89%
    03:00 +19°C° 0.1 mm 2 mps 758 mmHg 89%
    04:00 +18°C° 0 mm 2 mps 758 mmHg 90%
    05:00 +18°C° 0 mm 2 mps 758 mmHg 90%
    06:00 +18°C° 0 mm 2 mps 759 mmHg 90%
    07:00 +19°C° 0 mm 3 mps 759 mmHg 85%
    08:00 +21°C° 0 mm 3 mps 759 mmHg 81%
    09:00 +22°C° 0 mm 3 mps 760 mmHg 76%
    10:00 +24°C° 0 mm 3 mps 759 mmHg 71%
    11:00 +25°C° 0 mm 4 mps 759 mmHg 67%
    12:00 +27°C° 0 mm 4 mps 759 mmHg 63%
    13:00 +27°C° 0 mm 4 mps 757 mmHg 64%
    14:00 +27°C° 0 mm 4 mps 756 mmHg 64%
    15:00 +27°C° 0 mm 5 mps 755 mmHg 64%
    16:00 +26°C° 0 mm 5 mps 755 mmHg 69%
    17:00 +23°C° 0 mm 4 mps 755 mmHg 74%
    18:00 +22°C° 0 mm 4 mps 755 mmHg 79%
    19:00 +21°C° 0.1 mm 4 mps 755 mmHg 81%
    20:00 +21°C° 0.1 mm 4 mps 756 mmHg 83%
    21:00 +21°C° 0.1 mm 3 mps 756 mmHg 85%
    22:00 +21°C° 0.3 mm 3 mps 756 mmHg 87%
    23:00 +20°C° 0.3 mm 3 mps 756 mmHg 90%

    21 October, Saturday

    Time Temperature Precipitation Wind Pressure Humidity
    00:00 +20°C° 0.3 mm 3 mps 755 mmHg 92%
    01:00 +20°C° 0.7 mm 3 mps 755 mmHg 93%
    02:00 +20°C° 0.7 mm 3 mps 754 mmHg 94%
    03:00 +20°C° 0.7 mm 3 mps 753 mmHg 95%
    04:00 +20°C° 0.1 mm 3 mps 753 mmHg 95%
    05:00 +20°C° 0.1 mm 2 mps 753 mmHg 95%
    06:00 +20°C° 0.1 mm 2 mps 752 mmHg 95%
    07:00 +23°C° 0 mm 2 mps 752 mmHg 91%
    08:00 +24°C° 0 mm 2 mps 753 mmHg 86%
    09:00 +25°C° 0 mm 2 mps 753 mmHg 82%
    10:00 +26°C° 0.6 mm 2 mps 752 mmHg 82%
    11:00 +26°C° 0.6 mm 2 mps 752 mmHg 82%
    12:00 +27°C° 0.6 mm 2 mps 752 mmHg 81%
    13:00 +27°C° 0.6 mm 2 mps 752 mmHg 80%
    14:00 +27°C° 0.6 mm 3 mps 751 mmHg 79%
    15:00 +28°C° 0.6 mm 4 mps 751 mmHg 78%
    16:00 +27°C° 1.1 mm 3 mps 751 mmHg 81%
    17:00 +26°C° 1.1 mm 3 mps 751 mmHg 85%
    18:00 +25°C° 1.1 mm 3 mps 752 mmHg 89%
    19:00 +25°C° 1.2 mm 3 mps 752 mmHg 90%
    20:00 +24°C° 1.2 mm 3 mps 753 mmHg 92%
    21:00 +22°C° 1.2 mm 3 mps 754 mmHg 93%
    22:00 +22°C° 0.3 mm 3 mps 754 mmHg 93%
    23:00 +21°C° 0.3 mm 4 mps 755 mmHg 93%

    22 October, Sunday

    Time Temperature Precipitation Wind Pressure Humidity
    00:00 +21°C° 0.3 mm 5 mps 755 mmHg 92%
    01:00 +20°C° 0.1 mm 4 mps 755 mmHg 92%
    02:00 +19°C° 0.1 mm 4 mps 755 mmHg 91%
    03:00 +18°C° 0.1 mm 4 mps 756 mmHg 90%
    04:00 +17°C° 0 mm 4 mps 756 mmHg 90%
    05:00 +17°C° 0 mm 4 mps 757 mmHg 89%
    06:00 +15°C° 0 mm 4 mps 757 mmHg 89%
    07:00 +15°C° 0 mm 4 mps 758 mmHg 84%
    08:00 +15°C° 0 mm 4 mps 758 mmHg 80%
    09:00 +15°C° 0 mm 5 mps 759 mmHg 75%
    10:00 +17°C° 0 mm 5 mps 759 mmHg 66%
    11:00 +19°C° 0 mm 5 mps 759 mmHg 57%
    12:00 +20°C° 0 mm 5 mps 758 mmHg 48%
    13:00 +21°C° 0 mm 5 mps 758 mmHg 47%
    14:00 +21°C° 0 mm 6 mps 758 mmHg 46%
    15:00 +21°C° 0 mm 6 mps 758 mmHg 45%
    16:00 +20°C° 0 mm 5 mps 758 mmHg 49%
    17:00 +19°C° 0 mm 5 mps 758 mmHg 54%
    18:00 +18°C° 0 mm 4 mps 759 mmHg 58%
    19:00 +17°C° 0 mm 4 mps 759 mmHg 61%
    20:00 +14°C° 0 mm 4 mps 760 mmHg 63%
    21:00 +13°C° 0 mm 3 mps 760 mmHg 65%
    22:00 +13°C° 0 mm 3 mps 760 mmHg 68%
    23:00 +12°C° 0 mm 4 mps 760 mmHg 70%

    23 October, Monday

    Time Temperature Precipitation Wind Pressure Humidity
    00:00 +11°C° 0 mm 4 mps 760 mmHg 72%
    01:00 +11°C° 0 mm 3 mps 760 mmHg 74%
    02:00 +10°C° 0 mm 3 mps 760 mmHg 76%
    03:00 +10°C° 0 mm 3 mps 760 mmHg 78%
    04:00 +9°C° 0 mm 3 mps 760 mmHg 80%
    05:00 +9°C° 0 mm 3 mps 761 mmHg 81%
    06:00 +9°C° 0 mm 3 mps 761 mmHg 82%
    07:00 +10°C° 0 mm 3 mps 761 mmHg 72%
    08:00 +12°C° 0 mm 4 mps 762 mmHg 62%
    09:00 +14°C° 0 mm 4 mps 762 mmHg 52%
    10:00 +17°C° 0 mm 4 mps 761 mmHg 47%
    11:00 +18°C° 0 mm 3 mps 761 mmHg 42%
    12:00 +20°C° 0 mm 3 mps 761 mmHg 37%
    13:00 +21°C° 0 mm 3 mps 760 mmHg 37%
    14:00 +21°C° 0 mm 3 mps 760 mmHg 36%
    15:00 +23°C° 0 mm 2 mps 760 mmHg 36%
    16:00 +21°C° 0 mm 2 mps 760 mmHg 43%
    17:00 +20°C° 0 mm 2 mps 760 mmHg 49%
    18:00 +20°C° 0 mm 1 mps 760 mmHg 56%
    19:00 +18°C° 0 mm 1 mps 760 mmHg 61%
    20:00 +16°C° 0 mm 1 mps 761 mmHg 65%
    21:00 +14°C° 0 mm 1 mps 761 mmHg 70%
    22:00 +14°C° 0 mm 1 mps 761 mmHg 72%
    23:00 +13°C° 0 mm 1 mps 761 mmHg 74%
    Show more